Flag for West Bank Weather past 2 weeks in Tulkarm, West Bank

Now
79 °F

Passing clouds.


Feels Like: 81 °F
Forecast: 74 / 90 °F
Wind: 3 mph from North

Location: Dov Airport

Current Time: Sep 2, 2014 at 7:49:41 AM

Latest Report: Sep 2, 2014 at 6:50 AM


Visibility: N/A

Pressure: 29.74 "Hg

Humidity: 70%

Dew point: 68 °F

Location of TulkarmLocation

Historic Weather in Tulkarm — Graph

°F

Tulkarm temperature yesterday

Maximum temperature yesterday: 88 °F (at 10:50 AM)
Minimum temperature yesterday: 81 °F (at 5:00 AM)
Average temperature yesterday: 84 °F

Past Weeks' High & Low Weather Summary

 TemperatureHumidityPressure
High90 °F (Aug 18, 11:50 AM)89% (Aug 24, 4:50 AM)29.92 "Hg (Aug 24, 4:50 AM)
Low77 °F (Aug 20, 5:50 AM)55% (Aug 21, 8:50 AM)29.62 "Hg (Aug 18, 6:50 AM)
Average84 °F70%29.76 "Hg
* Reported Aug 18 6:50 AM — Sep 2 6:50 AM, Tulkarm, Weather by CustomWeather, © 2014

Note: Actual official high and low records may vary slightly from our data, if they occured in-between our weather recording intervals... More about our weather records

Advertising

Tulkarm weather history for previous 24 hours

 ConditionsComfort  
Time TempWeatherWind HumidityBarometerVisibility
6:50 AM
Sep 2
79 °FPassing clouds.3 mph70%29.74 "HgN/A
5:50 AM81 °FPassing clouds.3 mph66%29.74 "HgN/A
5:00 AM81 °FPassing clouds.7 mph66%29.74 "HgN/A
10:50 PM
Sep 1
82 °FPassing clouds.8 mph62%29.77 "HgN/A
9:50 PM82 °FPassing clouds.12 mph62%29.77 "HgN/A
8:50 PM82 °FPassing clouds.8 mph66%29.77 "HgN/A
7:50 PM82 °FPartly sunny.7 mph70%29.74 "HgN/A
6:50 PM84 °FScattered clouds.10 mph62%29.74 "HgN/A
5:50 PM86 °FScattered clouds.12 mph62%29.74 "HgN/A
4:50 PM86 °FPartly sunny.12 mph62%29.74 "HgN/A
3:50 PM86 °FPartly sunny.14 mph62%29.74 "HgN/A
2:50 PM88 °FPartly sunny.15 mph62%29.74 "HgN/A
1:50 PM88 °FScattered clouds.14 mph62%29.74 "HgN/A
12:50 PM86 °FScattered clouds.14 mph66%29.74 "HgN/A
11:50 AM86 °FScattered clouds.13 mph66%29.74 "HgN/A
10:50 AM88 °FScattered clouds.9 mph62%29.77 "HgN/A
9:50 AM86 °FScattered clouds.9 mph62%29.77 "HgN/A
8:50 AM86 °FScattered clouds.7 mph66%29.74 "HgN/A
7:50 AM84 °FScattered clouds.3 mph70%29.74 "HgN/A
Weather by CustomWeather, © 2014

See weather overviewHow to use our weather pages